This is the latest recevied weather packets stored in our database for station/object KE8RXN. If no packets are shown the sender has not sent any weather packets the latest 10 day(s).
| Time | Temp. | Humidity | Pressure | Rain* | Wind** | Luminosity | Snow |
|---|---|---|---|---|---|---|---|
| 1778066107 | 2.22° C | 84% | 1015.1 hPa | 0 mm | - | 20 W/m² | - |
| 1778065803 | 2.22° C | 84% | 1014.9 hPa | 0 mm | - | 15 W/m² | - |
| 1778065501 | 2.22° C | 84% | 1014.7 hPa | 0 mm | - | 16 W/m² | - |
| 1778065197 | 2.22° C | 85% | 1014.6 hPa | 0 mm | - | 16 W/m² | - |
| 1778064894 | 1.67° C | 86% | 1014.7 hPa | 0 mm | - | 12 W/m² | - |
| 1778064591 | 1.67° C | 88% | 1014.9 hPa | 0 mm | - | 10 W/m² | - |
| 1778064289 | 1.11° C | 88% | 1014.7 hPa | 0 mm | - | 7 W/m² | - |
| 1778063987 | 1.11° C | 88% | 1014.8 hPa | 0 mm | - | 5 W/m² | - |
| 1778063684 | 1.11° C | 88% | 1014.9 hPa | 0 mm | - | 2 W/m² | - |
| 1778063381 | 1.11° C | 88% | 1014.9 hPa | 0 mm | - | 0 W/m² | - |
| 1778063079 | 1.11° C | 87% | 1014.8 hPa | 0 mm | - | 0 W/m² | - |
| 1778062776 | 1.67° C | 86% | 1014.9 hPa | 0 mm | - | 0 W/m² | - |
| 1778062472 | 1.67° C | 85% | 1014.7 hPa | 0 mm | - | 0 W/m² | - |
| 1778062170 | 2.22° C | 84% | 1014.7 hPa | 0 mm | - | 0 W/m² | - |
| 1778061868 | 2.22° C | 84% | 1014.7 hPa | 0 mm | - | 0 W/m² | - |
| 1778061566 | 2.22° C | 84% | 1014.5 hPa | 0 mm | - | 0 W/m² | - |
| 1778061264 | 2.78° C | 83% | 1014.6 hPa | 0 mm | - | 0 W/m² | - |
| 1778060960 | 2.78° C | 84% | 1014.5 hPa | 0 mm | - | 0 W/m² | - |
| 1778060659 | 2.78° C | 84% | 1014.4 hPa | 0 mm | - | 0 W/m² | - |
| 1778060356 | 2.78° C | 84% | 1014.5 hPa | 0 mm | - | 0 W/m² | - |
| 1778060054 | 2.78° C | 84% | 1014.4 hPa | 0 mm | - | 0 W/m² | - |
| 1778059751 | 2.78° C | 83% | 1014.4 hPa | 0 mm | - | 0 W/m² | - |
| 1778059449 | 2.78° C | 83% | 1014.2 hPa | 0 mm | - | 0 W/m² | - |
| 1778059145 | 2.78° C | 83% | 1014.1 hPa | 0 mm | - | 0 W/m² | - |
| 1778058844 | 2.78° C | 82% | 1014 hPa | 0 mm | - | 0 W/m² | - |
* Rain latest hour (hover to see other rain measurements)
** Current wind speed in m/s (hover to see current wind gust speed)